Binghamton, NY

6:51 PM EST on December 06, 2019 (GMT -0500)
Binghamton Regional-Link

Weather History for KBGM - May, 2019

Change the Weather History Date:

Wednesday, May 15, 2019

  Actual Average Record
Temperature  
Mean Temperature 52 °F 56 °F  
Max Temperature 64 °F 65 °F 85 °F (1962)
Min Temperature 39 °F 46 °F 32 °F (2016)
Degree Days  
Heating Degree Days 13 10  
Month to date heating degree days 194 181  
Since 1 July heating degree days 6984 6980  
Cooling Degree Days 0 1  
Month to date cooling degree days 0 3  
Year to date cooling degree days 0 7  
Growing Degree Days 2 (Base 50)    
Moisture  
Dew Point 40 °F    
Average Humidity 70    
Maximum Humidity 100    
Minimum Humidity 39    
Precipitation  
Precipitation 0.13 in 0.11 in 0.93 in (1967)
Month to date precipitation 3.60 1.63  
Year to date precipitation 15.08 12.81  
Snow  
Snow 0.00 in 0.00 in T in (2016)
Month to date snowfall 0.0 0.1  
Since 1 July snowfall 81.4 83.4  
Snow Depth 0.00 in    
Sea Level Pressure  
Sea Level Pressure 29.86 in    
Wind  
Wind Speed 8 mph (WNW)    
Max Wind Speed 23 mph    
Max Gust Speed 31 mph    
Visibility 9 miles    
Events Rain    
T = Trace of Precipitation, MM = Missing Value Source: NWS Daily Summary

Daily Weather History Graph

Daily Weather History Graph

Search for Another Location

Airport or City:

Astronomy

May. 15, 2019 Rise Set
Actual Time 5:43 AM EDT 8:18 PM EDT
Civil Twilight 5:11 AM EDT 8:50 PM EDT
Nautical Twilight 4:31 AM EDT 9:30 PM EDT
Astronomical Twilight 3:45 AM EDT 10:15 PM EDT
Moon 4:40 PM EDT (5/15) 4:13 AM EDT (5/15)
Length of Visible Light 15h 39m
Length of Day
14h 34m
Waxing Gibbous, 87% of the Moon is Illuminated
May 15
Waxing Gibbous
May 18
Full
May 26
Last Quarter
Jun 3
New
Jun 10
First Quarter

Hourly Weather History & Observations

Time (EDT) Temp. Windchill Dew Point Humidity Pressure Visibility Wind Dir Wind Speed Gust Speed Precip Events Conditions
12:27 AM 39.0 °F 35.7 °F 37.9 °F 96% 29.88 in 10.0 mi WNW 4.6 mph - N/A   Mostly Cloudy
12:40 AM 39.0 °F 35.7 °F 37.9 °F 96% 29.87 in 10.0 mi WNW 4.6 mph - N/A   Mostly Cloudy
12:48 AM 39.2 °F 35.0 °F 37.4 °F 93% 29.87 in 10.0 mi WNW 5.8 mph - N/A   Overcast
12:53 AM 39.0 °F 35.7 °F 37.9 °F 96% 29.91 in 10.0 mi NW 4.6 mph - N/A   Overcast
1:04 AM 39.0 °F 35.7 °F 37.9 °F 96% 29.87 in 10.0 mi NW 4.6 mph - N/A   Overcast
1:19 AM 39.0 °F 34.8 °F 37.9 °F 96% 29.87 in 10.0 mi NW 5.8 mph - N/A   Overcast
1:41 AM 39.0 °F 34.8 °F 37.9 °F 96% 29.87 in 10.0 mi NW 5.8 mph - N/A   Overcast
1:53 AM 39.9 °F 35.8 °F 37.9 °F 93% 29.89 in 10.0 mi NNW 5.8 mph - N/A   Overcast
2:00 AM 39.9 °F 35.8 °F 37.9 °F 93% 29.86 in 10.0 mi NW 5.8 mph - N/A   Overcast
2:09 AM 39.0 °F 34.8 °F 37.9 °F 96% 29.85 in 10.0 mi NW 5.8 mph - N/A   Overcast
2:53 AM 39.9 °F 35.8 °F 39.0 °F 97% 29.88 in 10.0 mi WNW 5.8 mph - N/A   Overcast
3:53 AM 41.0 °F 36.4 °F 39.0 °F 93% 29.88 in 10.0 mi NNW 6.9 mph - N/A   Overcast
4:53 AM 39.9 °F 36.7 °F 39.0 °F 97% 29.89 in 10.0 mi WNW 4.6 mph - N/A   Overcast
5:06 AM 39.9 °F 37.8 °F 39.0 °F 97% 29.86 in 8.0 mi NW 3.5 mph - N/A   Overcast
5:25 AM 39.9 °F 36.7 °F 39.0 °F 97% 29.85 in 9.0 mi NW 4.6 mph - N/A   Overcast
5:53 AM 39.0 °F - 39.0 °F 100% 29.88 in 7.0 mi Calm Calm - N/A   Overcast
6:53 AM 39.9 °F 36.7 °F 39.0 °F 97% 29.90 in 4.0 mi West 4.6 mph - N/A   Overcast
7:53 AM 43.0 °F 41.3 °F 41.0 °F 93% 29.90 in 6.0 mi WNW 3.5 mph - N/A   Mostly Cloudy
8:05 AM 44.1 °F 40.1 °F 41.0 °F 89% 29.87 in 8.0 mi West 6.9 mph - N/A   Mostly Cloudy
8:35 AM 45.0 °F 41.8 °F 42.1 °F 90% 29.87 in 10.0 mi West 5.8 mph - N/A   Overcast
8:53 AM 46.0 °F 43.9 °F 42.1 °F 86% 29.90 in 10.0 mi West 4.6 mph - N/A   Overcast
9:15 AM 48.9 °F - 43.0 °F 80% 29.88 in 10.0 mi Variable 4.6 mph - N/A   Partly Cloudy
9:53 AM 52.0 °F - 43.0 °F 71% 29.89 in 10.0 mi NW 8.1 mph - N/A   Clear
10:53 AM 55.0 °F - 39.0 °F 55% 29.87 in 10.0 mi WNW 12.7 mph 23.0 mph N/A   Mostly Cloudy
11:53 AM 57.0 °F - 41.0 °F 55% 29.87 in 10.0 mi WNW 12.7 mph - N/A   Partly Cloudy
12:53 PM 60.1 °F - 39.0 °F 46% 29.85 in 10.0 mi WNW 13.8 mph 21.9 mph N/A   Scattered Clouds
1:53 PM 61.0 °F - 37.9 °F 42% 29.84 in 10.0 mi NNW 12.7 mph 21.9 mph N/A   Partly Cloudy
2:53 PM 63.0 °F - 39.0 °F 41% 29.82 in 10.0 mi WNW 17.3 mph 26.5 mph N/A   Mostly Cloudy
3:53 PM 62.1 °F - 37.9 °F 41% 29.81 in 10.0 mi NW 12.7 mph 25.3 mph N/A   Mostly Cloudy
4:53 PM 57.0 °F - 44.1 °F 62% 29.81 in 10.0 mi WNW 6.9 mph - 0.01 in   Overcast
5:53 PM 60.1 °F - 43.0 °F 53% 29.82 in 10.0 mi WNW 6.9 mph - N/A   Scattered Clouds
6:53 PM 57.9 °F - 39.0 °F 49% 29.83 in 10.0 mi NW 6.9 mph - N/A   Mostly Cloudy
7:53 PM 55.9 °F - 41.0 °F 57% 29.82 in 10.0 mi SSE 3.5 mph - N/A   Overcast
8:53 PM 48.9 °F - 46.0 °F 90% 29.88 in 3.0 mi WNW 9.2 mph 23.0 mph 0.08 in Rain Heavy Rain
9:53 PM 48.9 °F - 46.0 °F 90% 29.87 in 10.0 mi NW 9.2 mph - 0.04 in   Overcast
10:53 PM 48.9 °F - 43.0 °F 80% 29.85 in 10.0 mi West 8.1 mph - N/A   Overcast
11:53 PM 48.9 °F - 42.1 °F 77% 29.85 in 10.0 mi West 9.2 mph - N/A   Overcast